Regional Weather Roundup
Issued by NWS Nashville, TN

Home | Current Version | Previous Version | Text Only | Print | Product List | Glossary On
Versions: 1 2 3 4 5 6 7 8 9 10 11 12 13 14 15 16 17 18 19 20 21 22 23 24 25 26 27 28 29 30 31 32 33 34 35 36 37 38 39 40 41 42 43 44 45 46 47 48 49 50
000
ASUS44 KOHX 281010
RWROHX
MIDDLE TENNESSEE HOURLY WEATHER ROUNDUP
NATIONAL WEATHER SERVICE NASHVILLE TN
500 AM CDT FRI AUG 28 2015

NOTE: "FAIR" INDICATES FEW OR NO CLOUDS BELOW 12,000 FEET WITH
NO SIGNIFICANT WEATHER AND/OR OBSTRUCTIONS TO VISIBILITY.

* THESE REPORTS ARE NOT UNDER NWS QUALITY CONTROL AND MAY NOT
  REPORT WEATHER SUCH AS PRECIPITATION AND FOG.


TNZ005>011-023>034-057-059-062>066-078-080-281100
...NORTHERN MIDDLE TENNESSEE...

CITY           SKY/WX    TMP DP  RH WIND       PRES   REMARKS
CLARKSVILLE    CLEAR     56  54  93 CALM      30.10R
CROSSVILLE     CLEAR     58  55  90 CALM      30.14S
DICKSON        CLEAR     59  55  88 E3        30.09R
NASHVILLE      PTCLDY    64  56  75 CALM      30.10R
SMYRNA         CLEAR     57  56  97 CALM      30.10S
$$
TNZ056-058-060-061-075>077-079-093>097-281100
...SOUTHERN MIDDLE TENNESSEE...

CITY           SKY/WX    TMP DP  RH WIND       PRES   REMARKS
COLUMBIA       CLEAR     59  59 100 CALM      30.08R
LEWISBURG      CLEAR     56  55  96 CALM      30.08R
MCMINNVILLE    CLEAR     59  59 100 NE3       30.10S
SHELBYVILLE    CLEAR     61  59  94 CALM      30.10R
TULLAHOMA      CLEAR     61  55  82 CALM      30.10R
WINCHESTER     CLEAR     63  59  88 E3        30.09R
$$


...KEY TO REMARKS...
VSB - VISIBILITY IN MILES
WCI - WIND CHILL INDEX
HX  - HEAT INDEX




USA.gov is the U.S. government's official web portal to all federal, state and local government web resources and services.